EW5546 Weather Reports


time (UTC)temp
F
wind
direction
speed
knots
gust
knots
rain 1hr
in
rain 24hr
in
rain mn
in
humidity
%
barometer
mb
20260503021037 59 248 0.0 0.9 0.00 0.00 0.00 34 1017.1
20260503020041 59 0.0 0.0 0.00 0.00 0.00 34 1017.1
20260503015046 60 225 0.0 0.9 0.00 0.00 0.00 34 1017.1
20260503014016 60 225 0.9 1.7 0.00 0.00 0.00 34 1017.1
20260503013023 60 217 0.9 1.7 0.00 0.00 0.00 34 1017.1
20260503012105 60 233 0.9 0.9 0.00 0.00 0.00 34 1017.1
20260503011031 60 225 0.0 0.9 0.00 0.00 0.00 34 1017.1
20260503010046 60 225 0.9 1.7 0.00 0.00 0.00 34 1017.1
20260503005043 60 228 0.9 1.7 0.00 0.00 0.00 34 1017.1
20260503004029 60 232 0.9 0.9 0.00 0.00 0.00 34 1017.1
20260503003019 60 221 0.9 0.9 0.00 0.00 0.00 33 1017.1
20260503002025 60 225 0.9 0.9 0.00 0.00 0.00 33 1017.1
20260503001121 60 210 0.9 1.7 0.00 0.00 0.00 33 1017.1
20260503000038 60 0.0 0.0 0.00 0.00 0.00 33 1017.1
20260502235023 60 248 0.0 0.9 0.00 0.00 0.00 33 1017.1
20260502234041 60 0.0 0.0 0.00 0.00 0.00 32 1017.1
20260502233019 60 0.0 0.0 0.00 0.00 0.00 32 1017.1
20260502232019 60 0.0 0.0 0.00 0.00 0.00 32 1017.1
20260502231045 60 239 0.0 0.9 0.00 0.00 0.00 33 1017.1
20260502230044 60 0.0 0.0 0.00 0.00 0.00 33 1017.1
20260502225032 60 203 0.0 0.9 0.00 0.00 0.00 33 1017.1
20260502224049 60 0.0 0.0 0.00 0.00 0.00 32 1017.1
20260502223024 60 0.0 0.0 0.00 0.00 0.00 32 1017.1
20260502222040 61 0.0 0.0 0.00 0.00 0.00 31 1017.1
20260502221024 61 0.0 0.0 0.00 0.00 0.00 30 1017.1
20260502220041 61 0.0 0.0 0.00 0.00 0.00 29 1017.1
20260502215016 61 0.0 0.0 0.00 0.00 0.00 29 1017.1
20260502214056 61 0.0 0.0 0.00 0.00 0.00 29 1017.1
20260502213016 62 0.0 0.0 0.00 0.00 0.00 29 1017.1
20260502212044 62 0.0 0.0 0.00 0.00 0.00 28 1017.4
20260502211032 62 0.0 0.0 0.00 0.00 0.00 28 1018.1
20260502210026 62 0.0 0.0 0.00 0.00 0.00 27 1018.1
20260502205038 62 0.0 0.0 0.00 0.00 0.00 27 1017.6
20260502204038 63 0.0 0.0 0.00 0.00 0.00 26 1017.1
20260502203052 63 0.0 0.0 0.00 0.00 0.00 26 1017.1
20260502202015 64 0.0 0.0 0.00 0.00 0.00 25 1017.6
20260502201031 64 0.0 0.0 0.00 0.00 0.00 25 1018.1
20260502200042 64 0.0 0.0 0.00 0.00 0.00 24 1018.1
20260502195024 65 0.0 0.0 0.00 0.00 0.00 24 1018.1
20260502194049 65 0.0 0.0 0.00 0.00 0.00 23 1018.1
20260502193022 65 0.0 0.0 0.00 0.00 0.00 23 1018.1
20260502192021 66 203 0.0 0.9 0.00 0.00 0.00 20 1018.1
20260502191044 66 0.0 0.0 0.00 0.00 0.00 17 1018.1
20260502190028 67 0.0 0.0 0.00 0.00 0.00 14 1018.1
20260502185125 67 0.0 0.0 0.00 0.00 0.00 10 1018.1
20260502184050 68 0.0 0.0 0.00 0.00 0.00 7 1018.1
20260502183036 69 0.0 0.0 0.00 0.00 0.00 5 1018.1
20260502182023 69 0.0 0.0 0.00 0.00 0.00 5 1018.1
20260502181028 70 0.0 0.0 0.00 0.00 0.00 3 1018.1
20260502164044 73 206 0.9 1.7 0.00 0.00 0.00 2 1018.1
20260502163107 74 226 0.9 1.7 0.00 0.00 0.00 2 1018.1
20260502162034 74 228 0.9 0.9 0.00 0.00 0.00 2 1018.1
20260502161022 74 170 0.9 1.7 0.00 0.00 0.00 2 1018.1
20260502152044 77 225 0.9 0.9 0.00 0.00 0.00 2 1019.1
20260502151038 78 209 0.9 1.7 0.00 0.00 0.00 2 1019.1
20260502123020 78 218 1.7 2.6 0.00 0.00 0.00 21 1021.1
20260502122044 76 261 0.9 1.7 0.00 0.00 0.00 22 1021.1
20260502121045 76 218 0.9 1.7 0.00 0.00 0.00 22 1021.1
20260502115032 74 124 1.7 4.3 0.00 0.00 0.00 23 1021.1
20260502114043 74 229 1.7 2.6 0.00 0.00 0.00 23 1021.1
20260502113036 74 206 1.7 1.7 0.00 0.00 0.00 24 1021.1
20260502112023 73 229 1.7 2.6 0.00 0.00 0.00 24 1021.5
20260502111024 73 68 0.0 0.9 0.00 0.00 0.00 25 1022.1
20260502110034 73 210 2.6 3.5 0.00 0.00 0.00 24 1022.1
20260502105030 72 195 1.7 2.6 0.00 0.00 0.00 25 1022.1
20260502104046 72 214 1.7 2.6 0.00 0.00 0.00 25 1022.1
20260502103030 72 220 0.9 2.6 0.00 0.00 0.00 26 1022.1
20260502102020 72 265 0.9 1.7 0.00 0.00 0.00 27 1022.1
20260502101020 72 238 1.7 1.7 0.00 0.00 0.00 27 1022.1
20260502091036 70 211 1.7 4.3 0.00 0.00 0.00 32 1022.1
20260502071025 64 203 1.7 2.6 0.00 0.00 0.00 36 1023.1
20260502070044 64 213 0.9 1.7 0.00 0.00 0.00 37 1023.1
20260502065019 63 214 0.9 1.7 0.00 0.00 0.00 37 1023.1
20260502064046 62 211 1.7 2.6 0.00 0.00 0.00 38 1023.1
20260502063028 62 219 0.0 0.9 0.00 0.00 0.00 38 1023.1
20260502062015 61 210 0.9 1.7 0.00 0.00 0.00 38 1023.1
20260502061044 61 209 0.9 2.6 0.00 0.00 0.00 39 1023.1
20260502060056 60 211 0.9 0.9 0.00 0.00 0.00 40 1023.1
20260502055020 59 225 0.0 0.9 0.00 0.00 0.00 40 1023.1
20260502054021 58 218 0.9 0.9 0.00 0.00 0.00 41 1023.1
20260502053030 58 0.0 0.0 0.00 0.00 0.00 41 1023.1
20260502052034 57 225 0.0 0.9 0.00 0.00 0.00 42 1023.1
20260502051016 56 203 0.0 0.9 0.00 0.00 0.00 42 1023.1
20260502050031 55 203 0.0 0.9 0.00 0.00 0.00 43 1023.1
20260502045026 54 0.0 0.0 0.00 0.00 0.00 43 1023.1
20260502044044 54 0.0 0.0 0.00 0.00 0.00 44 1023.1
20260502043021 53 0.0 0.0 0.00 0.00 0.00 45 1023.1
20260502042018 52 0.0 0.0 0.00 0.00 0.00 45 1023.1
20260502041032 52 0.0 0.0 0.00 0.00 0.00 45 1023.1
20260502040016 52 0.0 0.0 0.00 0.00 0.00 45 1023.1
20260502035041 52 0.0 0.0 0.00 0.00 0.00 45 1023.1
20260502034043 51 0.0 0.0 0.00 0.00 0.00 45 1023.1
20260502033024 51 0.0 0.0 0.00 0.00 0.00 44 1023.1
20260502032021 51 0.0 0.0 0.00 0.00 0.00 44 1023.1
20260502031022 51 0.0 0.0 0.00 0.00 0.00 44 1023.1
20260502030033 51 0.0 0.0 0.00 0.00 0.00 43 1023.1
20260502025016 51 0.0 0.0 0.00 0.00 0.00 43 1023.1
20260502024021 51 0.0 0.0 0.00 0.00 0.00 43 1023.1
20260502023019 52 0.0 0.0 0.00 0.00 0.00 43 1023.1
20260502022124 52 0.0 0.0 0.00 0.00 0.00 42 1023.1